DW8548 Weather Reports


time (UTC)temp
F
wind
direction
speed
knots
gust
knots
rain 1hr
in
rain 24hr
in
rain mn
in
humidity
%
barometer
mb
20260506093055 66 88 0.9 6.1 0.00 0.00 0.00 57 1027.9
20260506091554 67 0 0.9 4.3 0.00 0.00 0.00 55 1027.8
20260506090053 68 104 0.9 5.2 0.00 0.00 0.00 55 1027.7
20260506084555 68 112 0.9 7.0 0.00 0.00 0.00 54 1027.7
20260506083059 69 111 0.9 5.2 0.00 0.00 0.00 53 1027.6
20260506081554 69 51 1.7 7.0 0.00 0.00 0.00 52 1027.6
20260506073053 71 102 0.9 8.7 0.00 0.00 0.00 50 1027.5
20260506071557 72 294 1.7 7.0 0.00 0.00 0.00 49 1027.4
20260506070103 73 181 0.9 7.0 0.00 0.00 0.00 49 1027.3
20260506061559 73 86 1.7 8.7 0.00 0.00 0.00 49 1027.2
20260506044557 72 68 0.0 7.8 0.00 0.00 0.00 53 1027.6
20260506043055 72 71 0.0 2.6 0.00 0.00 0.00 53 1027.8
20260506041556 71 78 0.9 5.2 0.00 0.00 0.00 55 1028.3
20260506034608 70 0 0.9 8.7 0.00 0.00 0.00 58 1028.6
20260506033059 68 74 0.9 7.0 0.00 0.00 0.00 61 1028.9
20260506031604 67 123 0.9 7.0 0.00 0.00 0.00 62 1029.0
20260506030054 66 126 1.7 7.8 0.00 0.00 0.00 63 1029.0
20260506024555 65 113 0.9 3.5 0.00 0.00 0.00 65 1029.1
20260506023058 64 114 1.7 7.8 0.00 0.00 0.00 66 1029.1
20260506021558 64 96 1.7 7.0 0.00 0.00 0.00 68 1029.2
20260506020100 63 106 1.7 7.0 0.00 0.00 0.00 67 1029.2
20260506014558 63 70 1.7 7.8 0.00 0.00 0.00 69 1029.2
20260506013053 62 119 0.9 6.1 0.00 0.00 0.00 70 1029.1
20260506011601 61 77 0.9 5.2 0.00 0.00 0.00 71 1029.2
20260506010059 60 159 1.7 5.2 0.00 0.00 0.00 72 1029.3
20260506004555 59 67 0.9 6.1 0.00 0.00 0.00 74 1029.2
20260506003057 58 0 0.9 6.1 0.00 0.00 0.00 75 1029.1
20260506001554 57 0 0.9 6.1 0.00 0.00 0.00 77 1028.9
20260506000053 56 86 0.9 7.8 0.00 0.00 0.00 78 1028.7
20260505234600 55 85 0.9 5.2 0.00 0.00 0.00 80 1028.4
20260505233108 54 72 0.9 5.2 0.00 0.00 0.00 81 1028.2
20260505231600 53 0 0.0 6.1 0.00 0.00 0.00 81 1028.0
20260505230057 54 83 0.0 5.2 0.00 0.00 0.00 81 1028.1
20260505224555 53 145 0.9 7.0 0.00 0.00 0.00 81 1028.0
20260505223057 53 78 0.9 3.5 0.00 0.00 0.00 80 1027.8
20260505221558 54 0 0.9 6.1 0.00 0.00 0.00 80 1027.7
20260505220057 54 98 0.9 3.5 0.00 0.00 0.00 79 1027.6
20260505214559 54 84 0.0 2.6 0.00 0.00 0.00 79 1027.3
20260505213102 54 0 0.0 3.5 0.00 0.00 0.00 79 1027.3
20260505211611 54 107 0.0 5.2 0.00 0.00 0.00 79 1027.1
20260505204600 54 93 0.9 5.2 0.00 0.00 0.00 79 1026.8
20260505203058 55 98 0.9 7.0 0.00 0.00 0.00 79 1026.9
20260505201600 54 98 0.9 5.2 0.00 0.00 0.00 80 1026.8
20260505200055 53 0 0.9 3.5 0.00 0.00 0.00 79 1026.9
20260505194607 53 84 0.0 5.2 0.00 0.00 0.00 79 1026.8
20260505193054 53 88 0.0 3.5 0.00 0.00 0.00 79 1027.0
20260505191556 53 75 0.0 2.6 0.00 0.00 0.00 78 1026.9
20260505190100 53 88 0.0 2.6 0.00 0.00 0.00 77 1026.8
20260505184553 54 86 0.0 2.6 0.00 0.00 0.00 76 1026.7
20260505183053 54 0 0.9 3.5 0.00 0.00 0.00 75 1026.8
20260505181557 54 0 0.9 3.5 0.00 0.00 0.00 74 1026.8
20260505180058 55 83 0.9 5.2 0.00 0.00 0.00 73 1026.7
20260505174608 56 0 0.9 3.5 0.00 0.00 0.00 72 1026.5
20260505173105 56 74 0.9 4.3 0.00 0.00 0.00 71 1026.6
20260505171605 56 84 0.9 3.5 0.00 0.00 0.00 71 1026.5
20260505170059 57 65 0.9 5.2 0.00 0.00 0.00 71 1026.4
20260505164622 57 0 0.9 7.0 0.00 0.00 0.00 72 1026.4
20260505163107 56 123 0.9 5.2 0.00 0.00 0.00 73 1026.3
20260505161616 56 0 0.0 1.7 0.00 0.00 0.00 74 1026.1
20260505153109 57 104 0.0 2.6 0.00 0.00 0.00 75 1026.1
20260505151607 57 71 0.9 5.2 0.00 0.00 0.00 79 1026.0
20260505130109 56 0 0.0 0.0 0.00 0.00 0.00 80 1026.3
20260505124602 57 0 0.0 0.9 0.00 0.00 0.00 80 1026.1
20260505123053 57 0 0.0 0.0 0.00 0.00 0.00 80 1026.1
20260505121552 58 0 0.0 0.9 0.00 0.00 0.00 80 1026.1
20260505120107 58 0 0.0 1.7 0.00 0.00 0.00 79 1026.0
20260505114553 58 0 0.0 0.9 0.00 0.00 0.00 79 1025.9
20260505113107 58 0 0.0 0.0 0.00 0.00 0.00 79 1025.8
20260505111602 59 0 0.0 1.7 0.00 0.00 0.00 78 1025.8
20260505110106 59 0 0.0 0.0 0.00 0.00 0.00 79 1025.5
20260505101603 61 147 0.0 0.0 0.00 0.00 0.00 74 1025.2
20260505100059 62 0 0.0 0.0 0.00 0.00 0.00 73 1025.1
20260505094555 63 0 0.0 0.9 0.00 0.00 0.00 72 1025.0